Hourly Weather Kitzbuhel

Today, 23 October, Friday

Time Temperature Precipitation Wind Pressure Humidity
00:00 +9°C° 0 mm 1 mps 679 mmHg 72%
01:00 +10°C° 0 mm 1 mps 678 mmHg 73%
02:00 +10°C° 0 mm 1 mps 678 mmHg 75%
03:00 +10°C° 0 mm 1 mps 678 mmHg 77%
04:00 +10°C° 0 mm 1 mps 677 mmHg 79%
05:00 +10°C° 0 mm 1 mps 677 mmHg 80%
06:00 +10°C° 0 mm 1 mps 677 mmHg 81%
07:00 +10°C° 0 mm 1 mps 677 mmHg 82%
08:00 +11°C° 0 mm 1 mps 677 mmHg 78%
09:00 +13°C° 0 mm 1 mps 678 mmHg 74%
10:00 +15°C° 0 mm 1 mps 678 mmHg 69%
11:00 +15°C° 0 mm 1 mps 678 mmHg 68%
12:00 +16°C° 0 mm 1 mps 677 mmHg 67%
13:00 +16°C° 0 mm 1 mps 677 mmHg 66%
14:00 +11°C° 0 mm 1 mps 677 mmHg 91%
15:00 +12°C° 0 mm 1 mps 676 mmHg 86%
16:00 +14°C° 0 mm 1 mps 675 mmHg 80%
17:00 +12°C° 0 mm 1 mps 675 mmHg 83%
18:00 +10°C° 0 mm 2 mps 675 mmHg 86%
19:00 +9°C° 0 mm 2 mps 675 mmHg 89%
20:00 +10°C° 0.4 mm 1 mps 676 mmHg 91%
21:00 +10°C° 0.4 mm 1 mps 676 mmHg 93%
22:00 +9°C° 0.4 mm 0 mps 676 mmHg 95%
23:00 +10°C° 1.3 mm 1 mps 677 mmHg 96%

Tomorrow, 24 October, Saturday

Time Temperature Precipitation Wind Pressure Humidity
00:00 +10°C° 1.3 mm 1 mps 677 mmHg 96%
01:00 +10°C° 1.3 mm 1 mps 677 mmHg 97%
02:00 +10°C° 0.9 mm 1 mps 677 mmHg 97%
03:00 +9°C° 0.9 mm 0 mps 677 mmHg 97%
04:00 +9°C° 0.9 mm 0 mps 677 mmHg 96%
05:00 +8°C° 0.5 mm 0 mps 677 mmHg 97%
06:00 +8°C° 0.5 mm 0 mps 677 mmHg 97%
07:00 +8°C° 0.5 mm 0 mps 678 mmHg 97%
08:00 +9°C° 0.4 mm 0 mps 678 mmHg 97%
09:00 +9°C° 0.4 mm 0 mps 678 mmHg 96%
10:00 +9°C° 0.4 mm 0 mps 678 mmHg 96%
11:00 +10°C° 0.2 mm 0 mps 678 mmHg 92%
12:00 +11°C° 0.2 mm 0 mps 678 mmHg 89%
13:00 +12°C° 0.2 mm 0 mps 678 mmHg 85%
14:00 +12°C° 0.2 mm 0 mps 678 mmHg 87%
15:00 +11°C° 0.2 mm 0 mps 678 mmHg 89%
16:00 +11°C° 0.2 mm 0 mps 678 mmHg 91%
17:00 +10°C° 0 mm 0 mps 678 mmHg 92%
18:00 +9°C° 0 mm 1 mps 678 mmHg 93%
19:00 +8°C° 0 mm 1 mps 678 mmHg 94%
20:00 +8°C° 0 mm 1 mps 678 mmHg 93%
21:00 +7°C° 0 mm 1 mps 678 mmHg 92%
22:00 +7°C° 0 mm 1 mps 678 mmHg 91%
23:00 +7°C° 0 mm 1 mps 677 mmHg 91%

Day after tomorrow, 25 October, Sunday

Time Temperature Precipitation Wind Pressure Humidity
00:00 +6°C° 0 mm 2 mps 677 mmHg 90%
01:00 +6°C° 0 mm 2 mps 677 mmHg 90%
02:00 +5°C° 0 mm 2 mps 677 mmHg 89%
03:00 +5°C° 0 mm 2 mps 676 mmHg 89%
04:00 +5°C° 0 mm 2 mps 676 mmHg 88%
05:00 +5°C° 0 mm 2 mps 676 mmHg 88%
06:00 +5°C° 0 mm 2 mps 676 mmHg 87%
07:00 +5°C° 0 mm 2 mps 676 mmHg 87%
08:00 +7°C° 0 mm 2 mps 676 mmHg 82%
09:00 +10°C° 0 mm 2 mps 676 mmHg 77%
10:00 +13°C° 0 mm 1 mps 676 mmHg 73%
11:00 +14°C° 0 mm 1 mps 676 mmHg 67%
12:00 +15°C° 0 mm 1 mps 676 mmHg 62%
13:00 +18°C° 0 mm 1 mps 675 mmHg 57%
14:00 +16°C° 0 mm 1 mps 675 mmHg 63%
15:00 +14°C° 0 mm 1 mps 674 mmHg 69%
16:00 +13°C° 0 mm 1 mps 673 mmHg 75%
17:00 +12°C° 0 mm 2 mps 673 mmHg 79%
18:00 +9°C° 0 mm 2 mps 673 mmHg 82%
19:00 +7°C° 0 mm 2 mps 672 mmHg 86%
20:00 +7°C° 0 mm 3 mps 672 mmHg 85%
21:00 +7°C° 0 mm 3 mps 672 mmHg 84%
22:00 +5°C° 0 mm 3 mps 671 mmHg 84%
23:00 +5°C° 0 mm 3 mps 671 mmHg 84%

, 26 October, Monday

Time Temperature Precipitation Wind Pressure Humidity
00:00 +5°C° 0 mm 3 mps 671 mmHg 84%
01:00 +5°C° 0 mm 3 mps 670 mmHg 84%
02:00 +4°C° 0 mm 3 mps 670 mmHg 85%
03:00 +5°C° 0 mm 2 mps 669 mmHg 85%
04:00 +5°C° 0 mm 2 mps 669 mmHg 86%
05:00 +5°C° 0 mm 2 mps 669 mmHg 85%
06:00 +5°C° 0 mm 2 mps 668 mmHg 84%
07:00 +5°C° 0 mm 2 mps 668 mmHg 84%
08:00 +7°C° 0 mm 2 mps 668 mmHg 76%
09:00 +9°C° 0 mm 2 mps 668 mmHg 69%
10:00 +12°C° 0 mm 2 mps 668 mmHg 62%
11:00 +13°C° 0 mm 2 mps 668 mmHg 60%
12:00 +14°C° 0 mm 2 mps 668 mmHg 58%
13:00 +14°C° 0 mm 2 mps 668 mmHg 56%
14:00 +13°C° 0 mm 2 mps 667 mmHg 64%
15:00 +12°C° 0 mm 2 mps 667 mmHg 71%
16:00 +10°C° 0 mm 2 mps 667 mmHg 79%
17:00 +9°C° 0 mm 2 mps 667 mmHg 84%
18:00 +9°C° 0 mm 1 mps 667 mmHg 89%
19:00 +8°C° 0 mm 1 mps 667 mmHg 94%
20:00 +7°C° 0.7 mm 1 mps 667 mmHg 95%
21:00 +7°C° 0.7 mm 1 mps 667 mmHg 96%
22:00 +7°C° 0.7 mm 1 mps 667 mmHg 97%
23:00 +7°C° 1 mm 1 mps 667 mmHg 97%

26 October, Monday

Time Temperature Precipitation Wind Pressure Humidity
00:00 +5°C° 0 mm 3 mps 671 mmHg 84%
01:00 +5°C° 0 mm 3 mps 670 mmHg 84%
02:00 +4°C° 0 mm 3 mps 670 mmHg 85%
03:00 +5°C° 0 mm 2 mps 669 mmHg 85%
04:00 +5°C° 0 mm 2 mps 669 mmHg 86%
05:00 +5°C° 0 mm 2 mps 669 mmHg 85%
06:00 +5°C° 0 mm 2 mps 668 mmHg 84%
07:00 +5°C° 0 mm 2 mps 668 mmHg 84%
08:00 +7°C° 0 mm 2 mps 668 mmHg 76%
09:00 +9°C° 0 mm 2 mps 668 mmHg 69%
10:00 +12°C° 0 mm 2 mps 668 mmHg 62%
11:00 +13°C° 0 mm 2 mps 668 mmHg 60%
12:00 +14°C° 0 mm 2 mps 668 mmHg 58%
13:00 +14°C° 0 mm 2 mps 668 mmHg 56%
14:00 +13°C° 0 mm 2 mps 667 mmHg 64%
15:00 +12°C° 0 mm 2 mps 667 mmHg 71%
16:00 +10°C° 0 mm 2 mps 667 mmHg 79%
17:00 +9°C° 0 mm 2 mps 667 mmHg 84%
18:00 +9°C° 0 mm 1 mps 667 mmHg 89%
19:00 +8°C° 0 mm 1 mps 667 mmHg 94%
20:00 +7°C° 0.7 mm 1 mps 667 mmHg 95%
21:00 +7°C° 0.7 mm 1 mps 667 mmHg 96%
22:00 +7°C° 0.7 mm 1 mps 667 mmHg 97%
23:00 +7°C° 1 mm 1 mps 667 mmHg 97%

27 October, Tuesday

Time Temperature Precipitation Wind Pressure Humidity
00:00 +7°C° 1 mm 1 mps 667 mmHg 98%
01:00 +6°C° 1 mm 1 mps 667 mmHg 98%
02:00 +6°C° 2.5 mm 1 mps 667 mmHg 98%
03:00 +6°C° 2.5 mm 1 mps 667 mmHg 98%
04:00 +5°C° 2.5 mm 1 mps 667 mmHg 99%
05:00 +5°C° 2.2 mm 1 mps 668 mmHg 98%
06:00 +4°C° 2.2 mm 1 mps 668 mmHg 98%
07:00 +4°C° 2.2 mm 1 mps 668 mmHg 98%
08:00 +4°C° 2.4 mm 1 mps 669 mmHg 98%
09:00 +4°C° 2.4 mm 1 mps 669 mmHg 98%
10:00 +4°C° 2.4 mm 1 mps 670 mmHg 98%
11:00 +4°C° 0.6 mm 1 mps 670 mmHg 97%
12:00 +5°C° 0.6 mm 1 mps 671 mmHg 97%
13:00 +5°C° 0.6 mm 1 mps 671 mmHg 96%
14:00 +5°C° 0.1 mm 1 mps 672 mmHg 96%
15:00 +5°C° 0.1 mm 1 mps 672 mmHg 95%
16:00 +5°C° 0.1 mm 1 mps 672 mmHg 95%
17:00 +5°C° 0 mm 1 mps 673 mmHg 96%
18:00 +4°C° 0 mm 1 mps 673 mmHg 96%
19:00 +3°C° 0 mm 0 mps 673 mmHg 97%
20:00 +2°C° 0 mm 0 mps 674 mmHg 97%
21:00 +2°C° 0 mm 0 mps 674 mmHg 96%
22:00 +1°C° 0 mm 0 mps 675 mmHg 96%
23:00 +2°C° 0 mm 1 mps 675 mmHg 96%

28 October, Wednesday

Time Temperature Precipitation Wind Pressure Humidity
00:00 +1°C° 0 mm 1 mps 675 mmHg 95%
01:00 0°C° 0 mm 1 mps 675 mmHg 95%
02:00 0°C° 0 mm 1 mps 675 mmHg 93%
03:00 0°C° 0 mm 1 mps 675 mmHg 92%
04:00 0°C° 0 mm 1 mps 675 mmHg 91%
05:00 0°C° 0 mm 1 mps 675 mmHg 89%
06:00 0°C° 0 mm 1 mps 675 mmHg 88%
07:00 0°C° 0 mm 1 mps 675 mmHg 87%
08:00 +2°C° 0 mm 1 mps 676 mmHg 85%
09:00 +4°C° 0 mm 1 mps 676 mmHg 83%
10:00 +5°C° 0 mm 0 mps 676 mmHg 82%
11:00 +6°C° 0 mm 0 mps 676 mmHg 79%
12:00 +8°C° 0 mm 0 mps 677 mmHg 76%
13:00 +9°C° 0 mm 0 mps 677 mmHg 73%
14:00 +8°C° 0 mm 0 mps 677 mmHg 76%
15:00 +8°C° 0 mm 0 mps 677 mmHg 79%
16:00 +7°C° 0 mm 0 mps 676 mmHg 82%
17:00 +7°C° 0 mm 1 mps 677 mmHg 81%
18:00 +5°C° 0 mm 1 mps 677 mmHg 80%
19:00 +3°C° 0 mm 2 mps 677 mmHg 78%
20:00 +3°C° 0 mm 2 mps 678 mmHg 77%
21:00 +5°C° 0 mm 1 mps 678 mmHg 76%
22:00 +5°C° 0 mm 1 mps 679 mmHg 74%
23:00 +5°C° 0 mm 1 mps 679 mmHg 75%
Show more